Overview Statistics Trail Chart Weather Telemetry Raw packets
 

This is the latest recevied weather packets stored in our database for station/object PACCTY-2. If no packets are shown the sender has not sent any weather packets the latest 10 day(s).

<< 30 31 32 33 34 35 36 >>
Time Temp. Humidity Pressure Rain* Wind** Luminosity Snow
1788388518 17.78° C 94% 1005.8 hPa 0 mm - - -
1788388217 17.22° C 94% 1005.9 hPa 0 mm - - -
1788387916 16.67° C 94% 1005.8 hPa 0 mm - - -
1788387314 16.67° C 94% 1005.8 hPa 0 mm - - -
1788387013 16.67° C 94% 1005.8 hPa 0 mm - - -
1788386712 16.11° C 94% 1005.7 hPa 0 mm - - -
1788386411 16.11° C 95% 1005.7 hPa 0 mm - - -
1788386110 16.11° C 95% 1005.6 hPa 0 mm - - -
1788385207 16.11° C 95% 1005.5 hPa 0 mm - - -
1788384906 15.56° C - 1005.5 hPa 0 mm - - -
1788384607 15.56° C 94% 1005.4 hPa 0 mm - - -
1788384304 15.56° C 94% 1005.3 hPa 0 mm - - -
1788384003 15.56° C 94% 1005.3 hPa 0 mm - - -
1788383702 15.56° C 94% 1005.2 hPa 0 mm - - -
1788383401 15.56° C 94% 1005.2 hPa 0 mm - - -
1788383100 15.56° C 94% 1005.1 hPa 0 mm - - -
1788382799 15.56° C 94% 1005 hPa 0 mm - - -
1788382498 15.56° C 94% 1005 hPa 0 mm - - -
1788382197 15.56° C 95% 1005 hPa 0 mm - - -
1788381595 15° C 94% 1004.9 hPa 0 mm - - -
1788381294 15° C 94% 1004.9 hPa 0 mm - - -
1788380693 15.56° C 94% 1004.7 hPa 0 mm - - -
1788380391 15.56° C 94% 1004.6 hPa 0 mm - - -
1788380090 15.56° C 94% 1004.4 hPa 0 mm - - -
1788379790 15.56° C 94% 1004.3 hPa 0 mm - - -

* Rain latest hour (hover to see other rain measurements)
** Current wind speed in m/s (hover to see current wind gust speed)